• In Hungary
  • List of Countries
  • For 7 days
  • Water Temperature
  • Satellite Maps
  • Weather Map
  • News
  • Weather Widgets
  • user-avatar
    Login

    Hourly Weather Yalpay

    Today, 26 September, Wednesday

    Time Temperature Precipitation Wind Pressure Humidity
    00:00 +7°C° 0 mm 4 mps 750 mmHg 88%
    01:00 +7°C° 0 mm 4 mps 750 mmHg 89%
    02:00 +6°C° 0 mm 4 mps 751 mmHg 90%
    03:00 +6°C° 0 mm 4 mps 751 mmHg 92%
    04:00 +6°C° 0 mm 4 mps 751 mmHg 92%
    05:00 +6°C° 0 mm 4 mps 752 mmHg 92%
    06:00 +6°C° 0 mm 4 mps 752 mmHg 92%
    07:00 +7°C° 0 mm 4 mps 753 mmHg 89%
    08:00 +8°C° 0 mm 5 mps 753 mmHg 87%
    09:00 +8°C° 0 mm 5 mps 754 mmHg 84%
    10:00 +9°C° 0.1 mm 5 mps 755 mmHg 82%
    11:00 +9°C° 0.1 mm 5 mps 755 mmHg 81%
    12:00 +9°C° 0.1 mm 5 mps 756 mmHg 79%
    13:00 +10°C° 0.1 mm 4 mps 756 mmHg 78%
    14:00 +10°C° 0.1 mm 4 mps 757 mmHg 76%
    15:00 +10°C° 0.1 mm 4 mps 757 mmHg 75%
    16:00 +8°C° 0 mm 4 mps 758 mmHg 77%
    17:00 +8°C° 0 mm 3 mps 758 mmHg 78%
    18:00 +8°C° 0 mm 3 mps 758 mmHg 79%
    19:00 +7°C° 0 mm 3 mps 758 mmHg 80%
    20:00 +7°C° 0 mm 3 mps 758 mmHg 81%
    21:00 +5°C° 0 mm 3 mps 758 mmHg 81%
    22:00 +5°C° 0 mm 3 mps 757 mmHg 81%
    23:00 +4°C° 0 mm 3 mps 757 mmHg 81%

    Tomorrow, 27 September, Thursday

    Time Temperature Precipitation Wind Pressure Humidity
    00:00 +4°C° 0 mm 3 mps 757 mmHg 81%
    01:00 +4°C° 0 mm 3 mps 756 mmHg 81%
    02:00 +3°C° 0 mm 4 mps 756 mmHg 81%
    03:00 +3°C° 0 mm 4 mps 755 mmHg 81%
    04:00 +3°C° 0 mm 4 mps 754 mmHg 80%
    05:00 +2°C° 0 mm 5 mps 753 mmHg 79%
    06:00 +2°C° 0 mm 6 mps 753 mmHg 78%
    07:00 +3°C° 0 mm 6 mps 752 mmHg 73%
    08:00 +4°C° 0 mm 7 mps 751 mmHg 69%
    09:00 +5°C° 0 mm 8 mps 750 mmHg 64%
    10:00 +5°C° 0.4 mm 8 mps 750 mmHg 67%
    11:00 +5°C° 0.4 mm 8 mps 749 mmHg 69%
    12:00 +5°C° 0.4 mm 9 mps 748 mmHg 71%
    13:00 +5°C° 0.7 mm 9 mps 747 mmHg 74%
    14:00 +5°C° 0.7 mm 8 mps 746 mmHg 77%
    15:00 +4°C° 0.7 mm 8 mps 746 mmHg 79%
    16:00 +4°C° 1 mm 7 mps 745 mmHg 82%
    17:00 +4°C° 1 mm 7 mps 745 mmHg 85%
    18:00 +4°C° 1 mm 6 mps 744 mmHg 88%
    19:00 +4°C° 0.2 mm 6 mps 744 mmHg 88%
    20:00 +5°C° 0.2 mm 5 mps 744 mmHg 88%
    21:00 +6°C° 0.2 mm 5 mps 744 mmHg 87%
    22:00 +5°C° 0 mm 5 mps 744 mmHg 87%
    23:00 +5°C° 0 mm 5 mps 745 mmHg 87%

    Day after tomorrow, 28 September, Friday

    Time Temperature Precipitation Wind Pressure Humidity
    00:00 +3°C° 0 mm 5 mps 745 mmHg 87%
    01:00 +3°C° 0 mm 5 mps 746 mmHg 87%
    02:00 +3°C° 0 mm 5 mps 746 mmHg 87%
    03:00 +3°C° 0 mm 5 mps 746 mmHg 87%
    04:00 +3°C° 0 mm 5 mps 747 mmHg 87%
    05:00 +2°C° 0 mm 5 mps 747 mmHg 88%
    06:00 +2°C° 0 mm 5 mps 747 mmHg 88%
    07:00 +3°C° 0 mm 6 mps 748 mmHg 84%
    08:00 +4°C° 0 mm 6 mps 748 mmHg 80%
    09:00 +5°C° 0 mm 7 mps 748 mmHg 76%
    10:00 +6°C° 0 mm 7 mps 748 mmHg 71%
    11:00 +8°C° 0 mm 7 mps 748 mmHg 67%
    12:00 +9°C° 0 mm 7 mps 748 mmHg 62%
    13:00 +8°C° 0.3 mm 6 mps 748 mmHg 67%
    14:00 +8°C° 0.3 mm 6 mps 748 mmHg 71%
    15:00 +7°C° 0.3 mm 5 mps 747 mmHg 75%
    16:00 +8°C° 1.2 mm 5 mps 746 mmHg 79%
    17:00 +8°C° 1.2 mm 6 mps 745 mmHg 83%
    18:00 +8°C° 1.2 mm 6 mps 744 mmHg 87%
    19:00 +9°C° 0.6 mm 7 mps 744 mmHg 86%
    20:00 +10°C° 0.6 mm 8 mps 743 mmHg 85%
    21:00 +11°C° 0.6 mm 9 mps 742 mmHg 83%
    22:00 +11°C° 0.7 mm 8 mps 742 mmHg 83%
    23:00 +11°C° 0.7 mm 8 mps 742 mmHg 83%

    29 September, Saturday

    Time Temperature Precipitation Wind Pressure Humidity
    00:00 +11°C° 0.7 mm 8 mps 742 mmHg 83%
    01:00 +10°C° 0.1 mm 8 mps 743 mmHg 83%
    02:00 +9°C° 0.1 mm 7 mps 744 mmHg 84%
    03:00 +6°C° 0.1 mm 7 mps 745 mmHg 84%
    04:00 +6°C° 0.1 mm 7 mps 746 mmHg 83%
    05:00 +7°C° 0.1 mm 6 mps 747 mmHg 82%
    06:00 +5°C° 0.1 mm 6 mps 748 mmHg 82%
    07:00 +5°C° 0 mm 6 mps 749 mmHg 79%
    08:00 +5°C° 0 mm 6 mps 750 mmHg 77%
    09:00 +7°C° 0 mm 6 mps 751 mmHg 75%
    10:00 +7°C° 0 mm 6 mps 752 mmHg 71%
    11:00 +7°C° 0 mm 6 mps 753 mmHg 68%
    12:00 +6°C° 0 mm 7 mps 754 mmHg 64%
    13:00 +7°C° 0 mm 6 mps 754 mmHg 61%
    14:00 +7°C° 0 mm 6 mps 754 mmHg 59%
    15:00 +8°C° 0 mm 6 mps 755 mmHg 56%
    16:00 +7°C° 0 mm 5 mps 755 mmHg 60%
    17:00 +6°C° 0 mm 4 mps 755 mmHg 64%
    18:00 +5°C° 0 mm 3 mps 756 mmHg 67%
    19:00 +6°C° 0 mm 2 mps 756 mmHg 69%
    20:00 +5°C° 0 mm 2 mps 756 mmHg 70%
    21:00 +5°C° 0 mm 2 mps 757 mmHg 71%
    22:00 +5°C° 0 mm 2 mps 757 mmHg 72%
    23:00 +4°C° 0 mm 3 mps 757 mmHg 73%

    30 September, Sunday

    Time Temperature Precipitation Wind Pressure Humidity
    00:00 +4°C° 0 mm 3 mps 757 mmHg 74%
    01:00 +3°C° 0 mm 3 mps 758 mmHg 78%
    02:00 +3°C° 0 mm 3 mps 758 mmHg 81%
    03:00 +2°C° 0 mm 3 mps 758 mmHg 85%
    04:00 +2°C° 0 mm 3 mps 758 mmHg 87%
    05:00 +1°C° 0 mm 3 mps 758 mmHg 90%
    06:00 +1°C° 0 mm 3 mps 759 mmHg 93%
    07:00 +2°C° 0 mm 3 mps 759 mmHg 85%
    08:00 +3°C° 0 mm 4 mps 759 mmHg 77%
    09:00 +4°C° 0 mm 4 mps 759 mmHg 69%
    10:00 +5°C° 0 mm 4 mps 759 mmHg 64%
    11:00 +6°C° 0 mm 4 mps 760 mmHg 58%
    12:00 +6°C° 0 mm 4 mps 760 mmHg 52%
    13:00 +6°C° 0 mm 4 mps 760 mmHg 52%
    14:00 +6°C° 0 mm 4 mps 760 mmHg 51%
    15:00 +6°C° 0 mm 4 mps 760 mmHg 51%
    16:00 +5°C° 0 mm 3 mps 760 mmHg 54%
    17:00 +5°C° 0 mm 3 mps 760 mmHg 57%
    18:00 +5°C° 0 mm 2 mps 761 mmHg 59%
    19:00 +4°C° 0 mm 2 mps 761 mmHg 62%
    20:00 +3°C° 0 mm 2 mps 761 mmHg 65%
    21:00 +2°C° 0 mm 2 mps 761 mmHg 68%
    22:00 +2°C° 0 mm 2 mps 761 mmHg 70%
    23:00 +2°C° 0 mm 2 mps 761 mmHg 71%

    1 October, Monday

    Time Temperature Precipitation Wind Pressure Humidity
    00:00 +1°C° 0 mm 2 mps 761 mmHg 73%
    01:00 +2°C° 0 mm 2 mps 761 mmHg 72%
    02:00 +1°C° 0 mm 3 mps 760 mmHg 71%
    03:00 +1°C° 0 mm 3 mps 760 mmHg 70%
    04:00 +1°C° 0 mm 3 mps 760 mmHg 70%
    05:00 +2°C° 0 mm 3 mps 760 mmHg 69%
    06:00 +1°C° 0 mm 4 mps 760 mmHg 68%
    07:00 +3°C° 0 mm 4 mps 759 mmHg 69%
    08:00 +4°C° 0 mm 4 mps 759 mmHg 70%
    09:00 +5°C° 0 mm 4 mps 759 mmHg 70%
    10:00 +6°C° 0 mm 4 mps 759 mmHg 70%
    11:00 +7°C° 0 mm 5 mps 760 mmHg 69%
    12:00 +8°C° 0 mm 5 mps 760 mmHg 68%
    13:00 +10°C° 0 mm 4 mps 760 mmHg 69%
    14:00 +10°C° 0 mm 4 mps 760 mmHg 69%
    15:00 +10°C° 0 mm 4 mps 760 mmHg 69%
    16:00 +10°C° 0 mm 3 mps 760 mmHg 73%
    17:00 +9°C° 0 mm 3 mps 760 mmHg 77%
    18:00 +8°C° 0 mm 2 mps 760 mmHg 81%
    19:00 +8°C° 0 mm 2 mps 760 mmHg 82%
    20:00 +8°C° 0 mm 2 mps 760 mmHg 83%
    21:00 +8°C° 0 mm 2 mps 760 mmHg 84%
    22:00 +7°C° 0 mm 3 mps 760 mmHg 85%
    23:00 +7°C° 0 mm 3 mps 761 mmHg 86%
    Show more